Tracking 32414 objects as of 4-Dec-2025
HD Live streaming from Space Station
objects crossing your sky now

EKRAN 6

Track EKRAN 6 now!
EKRAN 6 is classified as:


NORAD ID: 12120
Int'l Code: 1980-104A
Perigee: 35,784.8 km
Apogee: 35,830.6 km
Inclination: 6.7 °
Period: 1,436.8 minutes
Semi major axis: 42178 km
RCS: 6.3095 m2 (large)
Launch date: December 26, 1980
Source: Commonwealth of Independent States (former USSR) (CIS)
Launch site: TYURATAM MISSILE AND SPACE COMPLEX (TTMTR)
Your satellite tracking list
Your tracking list is empty




NASA's NSSDC Master Catalog

Two Line Element Set (TLE):
1 12120U 80104A   25338.44266784  .00000004  00000-0  00000-0 0  9995
2 12120   6.7126 292.4160 0005433  47.2272 321.0540  1.00222069125468
Source of the keplerian elements: AFSPC